Location: Aalsum
(53.3404°N, 6.0062°E)
Time: 06:16:55
(UTC+00:00)

Cosmos 2278 Rocket - Pass Details

Date: 28 January 2023
Orbit: 841 x 845 km, 71.0° (Epoch: 24 March)

Event Time Altitude Azimuth Distance (km) Brightness Sun altitude
Rises 19:37:22 0° 328° (NNW) 3,418 5.9 -30.5°
Reaches altitude 10° 19:40:02 10° 336° (NNW) 2,480 5.0 -30.9°
Enters shadow 19:42:53 26° 358° (N) 1,623 3.7 -31.3°
